CAPE
20 24 20 22 22 22 24 23 21 19 20 26 29 28 26 8 0 0 0 0 0 0 0 0 0 0 0 0 0 0 0 0 0 0 0 0 0 0 0 0 0 0 0 0 3 2 0 0 0 0 0 0 0 0
4 3 4 9 28 37 37 29 23 18 14 14 20 25 34 28 3 0 0 0 0 0 0 0 0 0 0 0 0 0 0 0 0 0 0 0 0 0 0 0 0 0 0 0 0 0 0 0 0 0 0 0 0 0
3 2 0 0 4 3 6 37 50 33 21 15 19 27 26 22 14 0 0 0 0 0 0 0 0 0 0 0 0 0 0 0 0 0 0 0 0 0 0 0 0 0 0 0 0 0 0 0 0 0 0 0 0 0
10 10 10 9 5 1 1 4 3 13 62 42 38 35 24 24 28 4 0 0 0 0 0 0 0 0 0 0 0 0 0 0 0 0 0 0 0 0 0 0 0 0 0 0 0 0 0 0 0 0 0 0 0 0
7 11 12 13 11 14 15 9 0 9 3 10 56 51 31 16 21 2 0 0 0 0 1 0 0 0 0 0 0 0 0 0 0 0 0 0 0 0 0 0 0 0 0 0 0 0 0 0 0 0 0 0 0 0
26 29 31 31 33 26 25 28 26 14 0 9 3 6 52 15 10 0 0 0 0 0 2 0 0 0 0 0 0 0 0 0 0 0 0 0 0 0 0 0 0 0 0 0 0 0 0 0 0 0 0 0 0 0
35 36 38 41 43 42 42 40 37 35 25 10 2 8 3 18 0 0 0 0 0 0 0 0 1 0 0 0 0 0 0 0 0 0 0 0 0 0 0 0 0 0 0 0 0 0 0 0 0 0 0 0 0 0
47 43 37 38 47 54 59 55 54 46 42 29 17 5 0 3 1 0 0 0 0 0 4 1 0 0 0 0 0 0 3 1 1 1 0 0 0 0 0 0 0 0 0 0 0 0 0 0 0 0 0 0 0 0
69 54 52 49 48 45 58 66 62 54 53 47 32 7 3 0 0 0 7 7 0 0 0 1 0 0 0 0 0 0 0 0 0 0 0 0 0 0 0 0 0 0 0 0 0 0 0 0 0 0 0 0 0 0
74 84 85 73 57 48 47 54 54 60 63 38 14 1 0 1 17 1 0 0 1 1 1 0 0 0 0 0 0 0 0 1 0 0 0 0 0 0 0 0 0 0 0 0 0 0 0 0 0 0 0 0 0 0
28 31 69 106 98 55 44 47 42 51 27 0 0 1 1 8 0 1 0 0 1 1 0 0 0 0 0 0 0 0 0 0 0 0 0 0 0 0 0 0 0 0 0 0 0 0 0 0 0 0 0 0 0 0
18 18 18 29 84 74 45 42 48 19 0 0 0 4 1 0 1 0 0 1 0 0 0 0 0 0 0 0 0 0 0 0 0 0 0 0 0 0 0 0 0 0 0 0 0 0 0 0 0 0 0 0 0 0
56 44 37 13 16 82 46 37 65 1 0 0 0 0 0 0 0 0 0 0 0 0 0 0 0 0 0 0 0 0 0 0 0 0 0 0 0 0 0 0 0 0 0 0 0 0 0 0 0 0 0 0 0 0
63 70 63 56 12 35 54 33 39 3 0 0 0 0 0 0 0 0 0 0 0 0 0 0 0 0 0 0 0 0 0 0 0 0 0 0 0 0 0 0 0 0 0 0 0 0 0 0 0 0 0 0 0 0
41 52 47 45 15 33 46 39 27 0 0 0 0 0 0 0 0 0 0 0 0 0 0 0 0 0 0 0 0 0 0 0 0 0 0 0 0 0 0 0 0 0 0 0 0 0 0 0 0 0 0 0 0 0
9 22 3 23 9 43 46 43 3 0 0 1 0 0 0 0 0 0 0 0 0 0 0 0 0 0 0 0 0 0 0 0 0 0 0 0 0 0 0 0 0 0 0 0 0 0 0 0 0 0 0 0 0 0
5 12 4 5 31 51 6 0 0 1 2 1 0 0 0 0 0 0 0 0 0 0 0 0 0 0 0 0 0 0 0 0 0 0 0 0 0 0 0 0 0 0 0 0 0 0 0 0 0 0 0 0 0 0
5 0 2 34 19 1 0 0 0 0 0 0 0 0 0 0 0 0 0 0 0 0 0 0 0 0 0 0 0 0 0 0 0 0 0 0 0 0 0 0 0 0 0 0 0 0 0 0 0 0 0 0 0 0
3 2 32 2 0 0 0 0 0 0 0 0 0 0 0 0 0 0 0 0 0 0 0 0 0 0 0 0 0 0 0 0 0 0 0 0 0 0 0 0 0 0 0 0 0 0 0 0 0 0 0 0 0 0
18 21 12 0 0 0 0 0 0 0 0 0 0 0 0 0 0 0 0 0 0 0 0 0 0 0 0 0 0 0 0 0 0 0 0 0 0 0 0 0 0 0 0 0 0 0 0 0 0 0 0 0 0 0
0 3 7 0 0 0 0 0 0 0 0 0 0 0 0 0 0 0 0 0 0 0 0 0 0 0 0 0 0 0 0 0 0 0 0 0 0 0 0 0 0 0 0 0 0 0 0 0 0 0 0 0 0 0
0 0 0 0 0 0 0 0 0 0 0 0 0 0 0 0 0 0 0 0 0 0 0 0 0 0 0 0 0 0 0 0 0 0 0 0 0 0 0 0 0 0 0 0 0 0 0 0 0 0 0 0 0 0
0 0 0 0 0 0 0 0 0 0 0 0 0 0 0 0 0 0 0 0 0 0 0 0 0 0 0 0 0 0 0 0 0 0 0 0 0 0 0 0 0 0 0 0 0 0 0 0 0 0 0 0 0 0
0 0 0 0 0 0 0 0 0 0 0 0 0 0 0 0 0 0 0 0 0 0 0 0 0 0 0 0 0 0 0 0 0 0 0 0 0 0 0 0 0 0 0 0 0 0 0 0 0 0 0 0 0 0
0 0 0 0 0 0 0 0 0 0 0 0 0 0 0 0 0 0 0 0 0 0 0 0 0 0 0 0 0 0 0 0 0 0 0 0 0 0 0 0 0 0 0 0 0 0 0 0 0 0 0 0 0 0
0 0 0 0 0 0 0 0 0 0 0 0 0 0 0 0 0 0 0 0 0 0 0 0 0 0 0 0 0 0 0 0 0 0 0 0 0 0 0 0 0 0 0 0 0 0 0 0 0 0 0 0 3 0
0 0 0 0 0 0 0 0 0 0 0 0 0 0 0 0 0 0 0 0 0 0 0 0 0 0 0 0 0 0 0 0 0 0 0 0 0 0 0 0 0 0 0 0 0 0 0 0 0 0 0 0 0 0
0 0 0 0 0 0 0 0 0 0 0 0 0 0 0 0 0 0 0 0 0 0 0 0 0 0 0 0 0 0 0 0 0 0 0 0 0 0 0 0 0 2 0 0 0 0 0 0 0 0 0 0 0 0
0 0 0 0 0 0 0 0 0 0 0 0 0 0 0 0 0 0 0 0 0 0 0 0 0 0 0 0 0 0 0 0 0 0 0 0 0 0 0 0 0 0 0 0 2 2 2 1 0 0 0 0 0 0
0 0 0 0 0 0 0 0 0 0 0 0 0 0 0 0 0 0 0 0 0 0 0 0 0 0 0 0 0 0 0 0 0 0 0 0 0 0 0 0 0 0 0 0 0 0 4 0 0 0 0 0 0 0
0 0 0 0 0 0 0 0 0 0 0 0 0 0 0 0 0 0 0 0 0 0 0 0 0 0 0 0 0 0 0 0 0 0 0 0 0 0 0 0 0 0 0 0 0 0 0 0 0 0 0 0 0 1
0 0 0 0 0 0 0 0 0 0 0 0 0 0 0 0 0 0 0 0 0 0 0 0 0 0 0 0 0 0 0 0 0 0 0 0 0 0 0 0 0 0 0 0 0 0 0 0 0 0 0 0 0 0
0 0 0 0 0 0 0 0 0 0 0 0 0 0 0 0 0 0 0 0 0 0 0 0 0 0 0 0 0 0 0 0 0 10 18 29 42 23 1 0 0 0 0 0 0 0 0 0 0 0 0 0 0 0
CIN
0 0 0 0 0 0 0 0 0 0 0 0 0 0 0 -1 0 0 0 0 0 0 0 0 0 0 0 0 0 0 0 0 0 0 0 0 0 0 0 0 0 0 0 0 -1 -2 0 0 0 0 0 0 0 0
0 0 0 -2 -1 -18 -23 0 0 0 0 0 -1 0 0 0 -3 0 0 0 0 0 0 0 0 0 0 0 0 0 0 0 0 0 0 0 0 0 0 0 0 0 0 0 0 0 0 0 0 0 0 0 0 0
0 0 0 0 0 0 0 -4 -1 -9 -22 0 0 0 0 0 0 0 0 0 0 0 0 0 0 0 0 0 0 0 0 0 0 0 0 0 0 0 0 0 0 0 0 0 0 0 0 0 0 0 0 0 0 0
0 0 0 0 0 0 0 0 0 -4 0 -1 -3 0 0 0 0 0 0 0 0 0 0 0 0 0 0 0 0 0 0 0 0 0 0 0 0 0 0 0 0 0 0 0 0 0 0 0 0 0 0 0 0 0
0 0 0 0 0 0 0 0 0 0 0 -10 -1 -2 0 0 -1 0 0 0 0 0 -4 0 0 0 0 0 0 0 0 0 0 0 0 0 0 0 0 0 0 0 0 0 0 0 0 0 0 0 0 0 0 0
0 0 0 0 0 0 0 0 0 0 0 0 0 0 0 -1 -23 0 0 0 0 0 -29 0 0 0 0 0 0 0 0 0 0 0 0 0 0 0 0 0 0 0 0 0 0 0 0 0 0 0 0 0 0 0
0 0 0 0 0 0 -1 0 -2 -1 0 0 -1 0 0 -23 0 0 0 0 0 0 0 0 0 0 0 0 0 0 0 -1 0 0 0 0 0 0 0 0 0 0 0 0 0 0 0 0 0 0 0 0 0 0
0 0 0 0 0 0 0 0 0 -1 -3 -1 0 0 0 0 0 -1 0 0 0 0 -1 0 0 0 0 0 0 0 0 0 0 0 0 0 0 0 0 0 0 0 0 0 0 0 0 0 0 0 0 0 0 0
0 0 0 0 0 0 0 0 -1 -1 -1 -3 -2 -4 -5 0 0 0 0 0 0 0 0 0 -1 0 0 0 0 0 0 0 0 0 0 0 0 0 0 0 0 0 0 0 0 0 0 0 0 0 0 0 0 0
0 0 0 0 0 0 0 0 0 -2 -2 -3 -18 0 0 0 0 0 0 0 0 0 0 0 0 0 0 0 0 0 0 0 0 0 0 0 0 0 0 0 0 0 0 0 0 0 0 0 0 0 0 0 0 0
0 0 -1 0 0 0 0 0 0 -2 -4 0 0 0 0 0 0 0 0 0 0 0 0 0 0 0 0 0 0 0 0 0 0 0 0 0 0 0 0 0 0 0 0 0 0 0 0 0 0 0 0 0 0 0
-7 -3 -1 0 0 0 0 0 -1 -3 0 0 0 0 0 0 0 0 0 0 0 0 0 0 0 0 0 0 0 0 0 0 0 0 0 0 0 0 0 0 0 0 0 0 0 0 0 0 0 0 0 0 0 0
0 0 0 0 0 0 0 0 -1 0 0 0 0 0 0 -1 0 0 0 0 0 0 0 0 0 0 0 0 0 0 0 0 0 0 0 0 0 0 0 0 0 0 0 0 0 0 0 0 0 0 0 0 0 0
0 0 0 0 0 0 0 0 0 -1 0 0 0 0 0 0 0 0 0 0 0 0 0 0 0 0 0 0 0 0 0 0 0 0 0 0 0 0 0 0 0 0 0 0 0 0 0 0 0 0 0 0 0 0
0 -1 -3 -2 0 0 0 0 0 0 0 0 0 0 0 0 0 0 0 0 0 0 0 0 0 0 0 0 0 0 0 0 0 0 0 0 0 0 0 0 0 0 0 0 0 0 0 0 0 0 0 0 0 0
0 0 0 -7 0 0 0 0 0 0 0 0 0 0 0 0 0 0 0 0 0 0 0 0 0 0 0 0 0 0 0 0 0 0 0 0 0 0 0 0 0 0 0 0 0 0 0 0 0 0 0 0 0 0
0 -2 -19 -2 0 0 0 0 0 0 0 0 0 0 0 0 0 0 0 0 0 0 0 0 0 0 0 0 0 0 0 0 0 0 0 0 0 0 0 0 0 0 0 0 0 0 0 0 0 0 0 0 0 0
-4 0 -2 0 0 0 0 0 0 0 0 0 0 0 0 0 0 0 0 0 0 0 0 0 0 0 0 0 0 0 0 0 0 0 0 0 0 0 0 0 0 0 0 0 0 0 0 0 0 0 0 0 0 0
0 0 0 0 0 0 0 0 0 0 0 0 0 0 0 0 0 0 0 0 0 -1 0 0 0 0 0 0 0 0 0 0 0 0 0 0 0 0 0 0 0 0 0 0 0 0 0 0 0 0 0 0 0 0
0 0 0 0 0 0 0 0 0 0 0 0 0 0 0 0 0 0 0 0 0 0 0 0 0 0 0 0 0 0 0 0 0 0 0 0 0 0 0 0 0 0 0 0 0 0 0 0 0 0 0 0 0 0
0 0 0 0 0 0 0 0 0 0 0 0 0 0 0 0 0 0 0 0 0 0 0 0 0 0 0 0 0 0 0 0 0 0 0 0 0 0 0 0 0 0 0 0 0 0 0 0 0 0 0 0 0 0
0 0 0 0 0 0 0 0 0 0 0 0 0 0 0 0 0 0 0 0 0 0 0 0 0 0 0 0 0 0 0 0 0 0 0 0 0 0 0 0 0 0 0 0 0 0 0 0 0 0 0 0 0 0
0 0 0 0 0 0 0 0 0 0 0 0 0 0 0 0 0 0 0 0 0 0 0 0 0 0 0 0 0 0 0 0 0 0 0 0 0 0 0 0 0 0 0 0 0 0 0 0 0 0 0 0 0 0
0 0 0 0 0 0 0 0 0 0 0 0 0 0 0 0 0 0 0 0 0 0 0 0 0 0 0 0 0 0 0 0 0 0 0 0 0 0 0 0 0 0 0 0 0 0 0 0 0 0 0 0 0 0
0 0 0 0 0 0 0 0 0 0 0 0 0 0 0 0 0 0 0 0 0 0 0 0 0 0 0 0 0 0 0 0 0 0 0 0 0 0 0 0 0 0 0 0 0 0 0 0 0 0 0 0 0 0
0 0 0 0 0 0 0 0 0 0 0 0 0 0 0 0 0 0 0 0 0 0 0 0 0 0 0 0 0 0 0 0 0 0 0 0 0 0 0 0 0 0 0 0 0 0 0 0 0 0 0 0 0 0
0 0 0 0 0 0 0 0 0 0 0 0 0 0 0 0 0 0 0 0 0 0 0 0 0 0 0 0 0 0 0 0 0 0 0 0 0 0 0 0 0 0 0 0 0 0 0 0 0 0 0 0 0 0
0 0 0 0 0 0 0 0 0 0 0 0 0 0 0 0 0 0 0 0 0 0 0 0 0 0 0 0 0 0 0 0 0 0 0 0 0 0 0 0 0 0 -1 0 0 0 0 0 0 0 0 0 0 0
0 0 0 0 0 0 0 0 0 0 0 0 0 0 0 0 0 0 0 0 0 0 0 0 0 0 0 0 0 0 0 0 0 0 0 0 0 0 0 0 0 0 0 0 0 0 0 0 0 0 0 0 0 0
0 0 0 0 0 0 0 0 0 0 0 0 0 0 0 0 0 0 0 0 0 0 0 0 0 0 0 0 0 0 0 0 0 0 0 0 0 0 0 0 0 0 0 0 0 0 0 0 0 0 0 0 0 0
0 0 0 0 0 0 0 0 0 0 0 0 0 0 0 0 0 0 0 0 0 0 0 0 0 0 0 0 0 0 0 0 0 0 0 0 0 0 0 0 0 0 0 0 0 0 0 0 0 0 0 0 0 0
0 0 0 0 0 0 0 0 0 0 0 0 0 0 0 0 0 0 0 0 0 0 0 0 0 0 0 0 0 0 0 0 0 0 0 0 0 0 0 0 0 0 0 0 0 0 0 0 0 0 0 0 0 0
0 0 0 0 0 0 0 0 0 0 0 0 0 0 0 0 0 0 0 0 0 0 0 0 0 0 0 0 0 0 0 0 0 0 0 0 0 0 -3 0 0 0 0 0 0 0 0 0 0 0 0 0 0 0
Wind_Speed
19 22 23 24 24 24 24 24 24 23 22 21 20 18 18 15 12 5 2 4 2 3 4 8 6 6 3 2 4 4 4 2 2 2 2 3 1 2 1 3 6 8 9 5 4 6 10 5 4 8 4 2 2 2
19 17 18 17 21 23 24 24 24 24 23 23 22 21 20 19 18 12 3 3 2 2 4 1 3 3 4 6 6 3 1 3 5 3 1 1 2 2 2 4 2 4 6 5 8 7 2 7 1 1 2 2 1 2
18 19 17 18 19 17 18 20 23 23 23 23 24 24 23 23 23 18 3 5 2 1 4 1 5 3 3 2 0 6 2 2 1 2 2 1 3 4 3 7 4 4 3 3 3 7 11 8 5 5 5 4 4 2
18 19 19 19 20 18 18 19 17 17 22 23 25 25 25 24 25 22 6 5 1 2 3 2 1 2 4 2 2 3 6 4 4 2 2 2 2 2 4 3 3 1 3 4 8 8 7 10 9 8 8 6 4 4
21 21 20 20 20 20 19 19 18 18 15 18 22 25 25 25 25 15 8 6 6 5 2 1 2 3 2 3 5 6 6 5 2 2 2 4 2 2 2 2 6 7 9 7 10 4 5 3 3 3 8 10 9 8
23 22 22 21 20 20 18 19 18 19 17 17 16 17 24 25 25 6 1 4 8 5 2 3 4 3 1 3 6 5 4 2 2 3 3 2 1 3 3 5 7 8 7 13 11 3 1 1 2 3 1 2 4 7
24 24 23 23 22 21 20 19 18 17 16 17 18 17 23 24 12 8 8 5 20 7 4 3 3 2 1 4 2 2 3 1 1 2 3 3 2 4 3 6 4 8 8 4 3 4 5 3 4 1 2 4 3 3
25 25 24 23 23 22 21 20 18 16 16 15 17 20 15 20 17 9 0 21 17 6 3 3 3 3 3 2 3 1 2 1 2 1 2 2 1 2 8 10 9 1 3 4 5 5 3 3 2 2 2 1 2 3
25 26 25 24 23 22 20 19 18 16 14 13 11 17 5 4 2 2 11 20 2 4 7 4 6 5 4 2 3 1 2 3 2 3 3 4 4 10 11 6 4 4 4 4 3 4 3 1 1 3 3 2 3 3
26 26 25 25 23 22 21 19 18 16 11 3 4 2 3 3 26 10 5 3 1 2 1 3 5 5 5 3 3 4 2 2 3 5 2 3 7 7 13 2 2 3 5 6 3 4 1 3 6 5 7 5 5 5
27 25 25 25 23 22 20 19 17 12 2 2 2 3 2 4 1 2 3 4 3 3 3 3 4 6 2 4 4 1 4 3 3 4 4 4 6 5 4 3 4 4 5 4 1 4 3 4 4 5 4 5 5 5
29 27 26 24 23 23 20 19 16 4 3 5 7 5 2 2 1 4 4 3 3 3 2 2 3 4 1 1 4 3 4 3 5 3 1 6 5 2 3 3 4 5 5 4 2 1 2 1 2 2 2 3 5 4
28 26 26 25 24 24 21 19 16 21 15 3 3 4 3 2 3 4 6 2 2 3 4 3 3 4 1 1 4 3 5 5 4 3 7 7 3 3 3 2 3 4 3 4 5 3 3 2 4 4 4 4 3 3
26 24 24 24 25 23 22 20 20 22 5 3 5 5 5 3 4 3 4 5 2 4 6 6 4 3 2 3 3 4 3 4 4 5 9 2 3 4 2 2 3 3 6 7 7 6 7 6 4 4 5 4 3 4
24 22 18 19 23 22 22 20 31 3 3 4 4 5 6 2 3 3 2 3 1 6 7 4 4 2 3 3 2 4 4 5 8 6 2 3 4 5 4 4 4 4 5 5 4 6 6 6 5 5 5 3 4 4
22 20 10 12 21 22 24 22 6 2 3 4 3 3 1 3 3 2 2 3 1 5 2 1 3 5 5 4 5 8 6 8 3 2 4 6 5 3 5 4 3 3 4 5 5 6 6 6 5 4 4 5 4 4
12 3 8 18 20 24 22 6 3 3 4 5 4 2 3 2 4 4 4 4 5 6 3 2 4 5 3 4 5 5 4 2 4 4 6 8 7 4 3 5 5 5 5 5 3 4 3 3 3 5 6 4 4 3
1 2 12 19 19 13 3 3 3 4 4 1 3 3 2 2 3 4 3 7 5 4 2 4 4 4 5 4 2 2 3 4 5 5 6 6 6 6 5 5 4 4 5 5 4 3 4 5 5 4 3 4 4 2
11 2 17 26 10 5 3 2 1 3 3 2 2 2 3 3 3 3 4 8 1 0 0 0 2 2 4 4 5 5 4 2 3 4 5 6 6 5 5 4 5 4 4 4 4 2 2 3 1 2 2 2 2 3
25 28 23 23 10 4 4 3 4 3 2 2 2 3 3 3 3 5 8 5 4 4 7 5 4 3 4 3 5 3 4 3 5 5 4 4 3 5 6 4 3 3 3 4 4 6 4 4 3 3 4 4 3 3
13 10 15 9 5 7 5 3 4 3 2 3 1 2 3 2 4 4 4 4 6 5 3 3 3 3 4 4 5 4 6 6 5 4 3 3 3 4 4 3 3 2 3 3 3 4 6 2 3 3 3 4 4 2
3 10 4 6 5 4 4 5 3 2 3 2 3 3 3 3 3 3 2 7 4 3 3 3 3 3 4 5 5 7 7 7 8 7 10 7 3 3 3 3 3 3 2 2 2 2 2 3 4 3 4 4 7 4
7 6 5 7 5 6 2 2 4 5 5 2 3 4 3 3 3 2 5 4 3 3 2 3 3 4 4 4 5 8 9 7 5 5 5 3 3 3 2 3 3 2 2 1 2 2 2 7 6 4 4 5 4 4
10 8 7 5 6 2 3 5 3 3 3 4 3 3 3 2 2 4 4 3 2 2 3 3 0 2 3 5 6 6 7 6 4 3 4 4 3 2 2 1 1 2 2 2 2 2 2 2 8 4 3 4 5 4
8 9 6 7 4 6 6 4 4 4 3 4 3 3 2 1 3 4 3 2 2 3 3 3 5 5 4 4 3 4 4 5 4 3 3 2 2 3 3 2 3 3 2 2 3 2 3 3 3 3 3 4 6 6
9 6 6 7 5 5 5 3 4 5 3 3 3 1 1 3 5 4 3 2 2 3 4 5 4 3 4 4 3 3 4 3 3 2 2 1 2 2 3 3 3 4 2 1 1 3 4 3 3 5 5 7 13 8
7 5 3 3 3 4 3 3 3 4 5 5 4 4 3 5 4 3 3 3 2 3 3 3 3 3 2 2 1 1 2 1 2 5 6 3 3 3 4 3 3 4 3 4 3 4 5 5 5 5 6 6 5 6
4 5 6 5 4 5 3 4 5 5 4 5 3 5 4 4 3 2 3 1 2 2 2 2 2 2 2 1 1 3 3 3 6 5 3 2 3 3 3 3 3 14 9 5 5 5 6 8 7 8 10 10 9 5
4 5 3 5 4 5 5 5 4 3 4 3 3 3 3 3 2 2 2 2 2 2 2 2 2 3 2 2 2 3 3 1 4 6 5 4 4 4 2 4 5 5 3 3 15 16 12 10 10 10 13 9 8 7
4 4 3 4 5 4 2 2 2 3 2 2 2 3 3 2 1 0 2 2 2 1 2 3 3 2 2 2 5 5 4 2 4 4 2 5 5 7 8 8 8 8 5 5 7 9 17 11 10 6 8 7 6 5
2 3 4 4 2 2 3 2 3 2 1 3 2 4 2 2 3 1 1 2 1 1 2 2 3 1 1 3 2 4 5 4 2 5 6 6 8 9 9 10 9 8 8 8 8 8 8 9 7 8 9 11 11 14
3 3 4 3 2 4 3 3 1 3 3 4 3 2 3 3 1 3 2 2 1 2 5 2 2 4 4 3 3 4 12 5 5 5 9 8 9 11 10 8 7 5 6 7 7 7 9 10 9 10 10 12 12 11
3 2 3 3 4 4 4 3 4 2 4 3 2 0 0 0 2 2 1 3 3 2 3 4 4 4 6 7 6 6 8 4 10 16 19 22 24 19 11 6 3 3 3 6 8 8 10 12 12 13 12 13 14 14
Wind_Direction
272 259 258 257 255 254 252 251 249 248 245 243 240 235 232 216 197 183 182 188 204 210 250 192 180 148 106 201 167 178 92 276 123 171 208 246 242 201 288 178 177 175 170 196 191 219 267 137 83 173 212 2 131 101
316 323 349 313 268 259 258 254 250 246 242 240 237 233 230 215 196 176 231 167 172 207 258 7 249 272 194 180 134 187 241 169 169 154 229 0 255 131 232 261 326 240 205 188 196 214 200 215 161 287 29 154 235 146
316 307 316 326 304 332 340 276 255 251 245 238 234 231 226 218 202 177 165 143 160 263 285 105 214 164 89 186 155 132 259 146 66 89 138 191 214 124 207 239 207 245 160 217 49 254 228 212 225 195 201 206 161 151
306 305 304 307 300 305 314 294 337 313 253 244 237 233 225 217 207 185 174 162 169 150 254 230 116 127 4 116 116 91 129 93 112 75 121 165 192 89 248 242 214 184 116 206 260 278 301 262 224 198 196 191 167 180
302 300 297 297 298 297 301 294 322 297 328 332 248 234 227 216 205 193 186 174 185 156 234 19 153 79 46 171 133 124 131 121 126 102 128 213 212 86 227 26 232 185 191 190 251 225 191 274 346 358 171 188 183 172
295 295 293 292 292 291 292 290 299 285 327 297 336 306 228 216 199 112 246 200 179 137 105 261 70 44 72 146 128 157 146 96 132 149 201 252 85 127 242 240 247 208 217 230 250 75 95 198 355 347 97 137 187 178
293 291 289 290 289 287 286 286 284 286 293 286 331 287 342 225 177 174 186 176 168 122 143 231 186 37 0 99 67 56 24 53 96 163 220 213 198 179 234 237 223 224 226 258 170 95 302 187 228 110 50 347 318 99
287 286 285 284 283 284 284 282 283 281 286 290 295 303 289 318 193 187 139 139 142 110 184 223 112 151 221 141 119 115 136 152 191 238 182 204 86 208 251 247 261 326 264 290 237 213 191 138 112 104 44 39 71 126
279 279 280 279 276 274 273 277 278 279 275 291 300 297 288 64 31 24 165 137 6 137 176 182 170 180 175 106 115 187 187 169 118 230 221 169 198 223 232 239 227 238 186 221 35 85 89 161 195 158 143 195 170 181
279 272 270 270 270 268 268 268 273 278 275 324 17 5 80 11 109 90 31 3 289 175 189 184 111 159 151 155 169 134 188 213 198 221 99 228 257 235 241 146 110 333 316 156 96 307 244 260 220 207 205 192 191 188
284 281 276 262 255 257 255 256 258 263 206 71 68 51 101 122 69 107 140 178 195 222 186 195 131 130 254 138 142 200 168 155 222 217 167 246 256 229 70 41 19 352 336 292 160 128 138 156 175 191 210 196 187 192
281 273 267 265 254 242 244 242 243 195 137 147 106 103 175 251 191 160 189 174 200 222 50 72 74 104 132 138 116 181 172 153 238 128 112 257 251 73 62 36 1 348 338 6 36 69 318 256 140 113 112 166 179 169
282 273 267 254 250 237 225 225 221 134 119 72 92 128 143 204 234 220 166 135 219 149 192 163 95 103 113 252 97 162 166 209 113 185 232 236 130 84 54 45 26 352 35 55 32 26 27 52 58 57 64 42 69 109
284 276 266 258 227 231 209 208 165 142 104 143 148 163 194 196 244 182 172 173 153 119 139 124 110 121 119 171 133 165 150 117 216 233 231 210 108 117 97 68 91 25 40 47 36 36 38 43 53 50 53 43 41 58
299 287 271 278 215 208 191 191 157 116 131 149 166 209 198 196 38 38 55 93 68 149 135 101 78 136 160 126 197 100 151 224 213 233 187 109 114 118 94 64 53 49 46 44 24 40 37 25 38 61 38 40 58 46
296 295 259 240 186 186 170 160 129 102 137 150 207 129 48 123 138 168 171 105 118 128 66 72 151 165 187 167 166 208 177 217 232 45 89 107 84 58 81 80 67 53 56 50 38 42 46 31 27 15 22 39 31 36
301 232 200 173 168 153 115 98 113 157 183 185 187 125 175 111 149 153 147 150 146 143 184 162 205 210 90 190 219 197 218 26 104 94 81 87 92 69 48 65 50 53 55 42 47 55 44 358 7 44 38 5 3 28
344 213 173 155 128 81 74 73 125 154 196 136 150 158 131 39 104 94 83 142 152 204 183 217 125 199 211 204 205 62 83 49 62 77 81 83 78 66 60 63 46 40 56 36 12 40 50 33 44 28 8 354 343 16
3 94 136 111 110 102 97 92 3 114 57 61 78 39 62 84 53 50 114 170 319 201 272 290 258 25 37 18 357 28 22 108 107 80 67 61 59 60 57 58 53 31 42 30 3 47 37 76 79 359 337 352 351 326
35 41 56 56 40 62 71 42 344 97 102 83 49 60 64 50 55 48 43 21 33 32 41 39 40 37 360 8 349 351 340 42 116 108 94 71 70 67 50 42 37 348 26 25 8 65 28 21 9 356 331 9 20 344
20 3 23 41 48 51 70 7 59 39 60 69 27 62 80 57 43 40 39 3 59 30 66 48 65 73 45 22 4 10 17 19 36 44 73 98 53 65 54 28 28 14 40 35 31 11 37 7 320 343 2 334 302 282
338 13 45 27 65 61 69 12 54 57 53 56 52 41 39 49 50 37 30 47 55 30 11 18 26 58 49 35 22 20 5 30 32 40 46 61 47 36 29 17 19 17 44 33 19 0 340 325 316 35 3 315 349 321
3 25 49 12 72 43 359 328 71 13 66 36 35 55 36 61 65 141 74 62 81 19 26 53 56 64 74 59 48 34 19 28 41 34 27 35 69 28 10 22 17 34 359 338 345 343 331 349 337 1 353 345 331 329
33 47 35 42 35 19 3 24 39 56 47 43 55 73 39 62 110 64 74 68 59 23 40 28 167 140 98 54 45 30 9 359 9 48 27 3 11 358 326 295 315 269 218 255 298 312 343 333 355 338 336 337 329 326
65 3 22 9 3 13 32 25 14 37 64 24 82 77 51 19 69 62 68 83 55 40 40 54 45 45 66 72 61 64 29 18 11 346 349 21 334 312 323 332 313 273 183 49 336 358 326 339 332 327 324 311 291 294
71 18 38 1 5 20 2 36 25 9 29 64 58 95 60 70 67 58 54 37 49 30 20 16 19 77 62 36 36 18 0 353 314 276 259 51 296 253 280 305 321 317 8 94 9 330 313 303 297 305 301 309 318 335
60 3 20 36 350 322 49 42 17 36 40 26 360 336 76 71 76 83 103 20 46 34 25 15 16 38 44 24 63 14 298 273 246 261 284 273 245 216 182 204 264 255 282 266 257 236 254 278 280 277 278 280 260 252
55 25 30 4 45 8 36 42 31 20 2 348 283 32 59 35 83 52 43 27 358 3 37 37 30 12 340 328 312 313 308 314 306 309 318 285 243 238 229 245 245 293 324 313 270 229 240 253 258 271 273 270 274 258
43 349 333 32 50 53 40 18 16 30 347 309 353 65 79 56 11 23 36 352 334 332 22 359 329 336 318 301 258 264 274 15 41 10 356 306 322 300 267 261 261 265 251 239 294 297 281 265 250 240 248 256 258 266
13 343 57 46 51 38 358 354 333 341 349 4 340 107 79 48 6 260 313 346 28 293 238 233 266 35 314 337 304 315 291 220 166 156 252 295 270 288 302 297 293 288 278 256 266 278 292 305 307 311 303 288 274 254
314 3 62 52 91 261 242 275 285 245 352 32 354 89 136 209 310 241 197 223 240 308 357 334 325 265 288 317 324 328 320 306 263 248 249 262 268 272 273 273 273 274 269 265 265 264 266 283 280 278 276 272 269 276
21 59 107 93 285 290 19 31 333 68 354 52 356 42 11 55 6 274 220 129 2 5 338 40 318 289 265 265 261 241 273 282 283 268 272 272 266 261 261 262 260 264 282 292 286 277 270 265 269 267 270 271 268 261
47 43 42 70 24 7 333 51 19 22 26 45 0 301 200 133 193 265 269 189 208 231 266 255 251 261 266 266 253 266 295 256 280 306 322 322 325 323 313 296 338 318 309 308 299 287 284 284 285 279 259 256 259 261